Location: Poughquag
(41.6090°N, 73.6820°W)
Time: 12:07:30
(UTC-04:00)

Transit 2A - Pass Details

Date: 03 June 2020
Orbit: 592 x 967 km, 66.7° (Epoch: 06 July)

Event Time Altitude Azimuth Distance (km) Brightness Sun altitude
Rises 14:41:25 0° 252° (WSW) 3,086 9.6 60.3°
Reaches altitude 10° 14:44:11 10° 268° (W) 2,237 9.0 59.9°
Maximum altitude 14:48:06 22° 318° (NW) 1,673 8.2 59.2°
Drops below altitude 10° 14:52:21 10° 7° (N) 2,442 8.5 58.5°
Sets 14:55:32 0° 23° (NNE) 3,452 9.1 58.0°
